Drummond Island, MI

9:28 AM EST on February 13, 2016 (GMT -0500)
Drummond Island

Weather History for KDRM - October, 2013

Change the Weather History Date:

Tuesday, October 22, 2013

  Actual Average Record
Temperature  
Mean Temperature 38 °F -  
Max Temperature 45 °F - - ()
Min Temperature 31 °F - - ()
Degree Days  
Heating Degree Days 27    
Moisture  
Dew Point 32 °F    
Average Humidity 80    
Maximum Humidity 99    
Minimum Humidity 57    
Precipitation  
Precipitation 0.00 in - - ()
Sea Level Pressure  
Sea Level Pressure 29.70 in    
Wind  
Wind Speed 6 mph (WNW)    
Max Wind Speed 14 mph    
Max Gust Speed 31 mph    
Visibility 9 miles    
Events Snow    
T = Trace of Precipitation, MM = Missing Value Source: NWS Daily Summary

Daily Weather History Graph

Daily Weather History Graph

Search for Another Location

Airport or City:

Trip Planner

Search our weather history database for the weather conditions in past years. The results will help you decide how hot, cold, wet, or windy it might be!

Date:

Astronomy

Oct. 22, 2013 Rise Set
Actual Time 8:01 AM EDT 6:36 PM EDT
Civil Twilight 7:31 AM EDT 7:06 PM EDT
Nautical Twilight 6:56 AM EDT 7:41 PM EDT
Astronomical Twilight 6:21 AM EDT 8:16 PM EDT
Moon 9:07 PM EDT (10/22) 11:37 AM EDT (10/22)
Length of Visible Light 11h 35m
Length of Day
10h 34m
Waning Gibbous, 87% of the Moon is Illuminated
Oct 22
Waning Gibbous
Oct 26
Last Quarter
Nov 3
New
Nov 10
First Quarter
Nov 17
Full

Hourly Weather History & Observations

Time (EDT) Temp. Windchill Dew Point Humidity Pressure Visibility Wind Dir Wind Speed Gust Speed Precip Events Conditions
12:15 AM 34.9 °F 30.8 °F 29.8 °F 82% 29.68 in 10.0 mi WSW 4.6 mph - N/A   Overcast
12:35 AM 36.0 °F 29.6 °F 27.3 °F 71% 29.67 in 10.0 mi West 8.1 mph - N/A   Overcast
12:56 AM 36.0 °F 30.3 °F 26.6 °F 69% 29.67 in 10.0 mi West 6.9 mph - N/A   Overcast
1:15 AM 36.0 °F 32.1 °F 25.9 °F 67% 29.66 in 10.0 mi West 4.6 mph - N/A   Mostly Cloudy
1:36 AM 36.1 °F 30.6 °F 24.6 °F 63% 29.66 in 10.0 mi West 6.9 mph - N/A   Mostly Cloudy
1:56 AM 35.1 °F 30.1 °F 26.4 °F 71% 29.67 in 2.5 mi WSW 5.8 mph 19.6 mph N/A Snow Light Snow
2:15 AM 33.6 °F 27.5 °F 27.3 °F 78% 29.67 in 10.0 mi SSW 6.9 mph - N/A   Overcast
2:36 AM 34.0 °F 28.0 °F 26.8 °F 75% 29.67 in 10.0 mi WSW 6.9 mph - N/A   Overcast
2:56 AM 33.8 °F 28.6 °F 28.6 °F 81% 29.67 in 10.0 mi SSW 5.8 mph - N/A Snow Light Snow
3:15 AM 32.7 °F - 29.7 °F 88% 29.66 in 10.0 mi Calm Calm - N/A   Overcast
3:36 AM 32.0 °F 28.7 °F 30.2 °F 93% 29.65 in 10.0 mi SSW 3.5 mph - N/A   Scattered Clouds
3:55 AM 32.0 °F - 29.7 °F 91% 29.65 in 10.0 mi Calm Calm - N/A   Clear
4:15 AM 32.0 °F - 29.7 °F 91% 29.64 in 10.0 mi Calm Calm - N/A   Scattered Clouds
4:36 AM 31.5 °F 25.8 °F 29.7 °F 93% 29.65 in 7.0 mi SSW 5.8 mph - N/A Snow Light Snow
4:55 AM 33.4 °F - 31.1 °F 91% 29.64 in 5.0 mi Calm Calm - N/A Snow Light Snow
5:15 AM 33.1 °F - 32.0 °F 96% 29.64 in 1.0 mi Calm Calm - N/A Snow Light Snow
5:36 AM 33.6 °F - 32.7 °F 96% 29.63 in 3.0 mi Calm Calm - N/A Snow Light Snow
5:55 AM 32.9 °F - 32.4 °F 98% 29.62 in 2.0 mi Calm Calm - N/A Snow Light Snow
6:15 AM 33.1 °F - 32.7 °F 99% 29.62 in 2.0 mi Calm Calm - N/A Snow Light Snow
6:36 AM 33.3 °F - 32.9 °F 99% 29.62 in 1.5 mi Calm Calm - N/A Snow Light Snow
6:55 AM 34.0 °F - 33.8 °F 99% 29.62 in 2.5 mi Calm Calm - N/A Snow Light Snow
7:16 AM 34.5 °F - 33.8 °F 97% 29.62 in 5.0 mi Calm Calm - N/A Snow Light Snow
7:35 AM 34.7 °F - 34.0 °F 97% 29.61 in 10.0 mi Calm Calm - N/A   Overcast
7:55 AM 35.2 °F 32.4 °F 33.4 °F 93% 29.62 in 10.0 mi WSW 3.5 mph - N/A   Mostly Cloudy
8:16 AM 34.7 °F 30.6 °F 32.0 °F 90% 29.62 in 10.0 mi WSW 4.6 mph - N/A   Scattered Clouds
8:35 AM 34.2 °F - 32.0 °F 92% 29.62 in 10.0 mi Calm Calm - N/A   Mostly Cloudy
8:56 AM 34.5 °F - 32.5 °F 92% 29.62 in 10.0 mi Calm Calm - N/A   Mostly Cloudy
9:15 AM 34.7 °F 31.8 °F 32.5 °F 92% 29.62 in 10.0 mi West 3.5 mph - N/A   Mostly Cloudy
9:35 AM 35.1 °F 29.3 °F 32.9 °F 92% 29.63 in 10.0 mi West 6.9 mph - N/A   Mostly Cloudy
9:56 AM 36.0 °F 30.3 °F 33.3 °F 90% 29.62 in 10.0 mi West 6.9 mph - N/A   Mostly Cloudy
10:15 AM 36.9 °F 31.4 °F 33.8 °F 89% 29.63 in 10.0 mi West 6.9 mph - N/A   Mostly Cloudy
10:36 AM 37.4 °F 30.3 °F 34.2 °F 88% 29.64 in 10.0 mi West 10.4 mph 16.1 mph N/A   Overcast
10:56 AM 38.5 °F 30.7 °F 34.5 °F 86% 29.64 in 10.0 mi WNW 12.7 mph 21.9 mph N/A   Overcast
11:15 AM 38.3 °F 30.5 °F 34.7 °F 87% 29.65 in 10.0 mi WNW 12.7 mph 21.9 mph N/A   Light Drizzle
11:36 AM 39.2 °F 32.0 °F 34.2 °F 82% 29.65 in 10.0 mi WNW 11.5 mph 23.0 mph N/A   Overcast
11:56 AM 38.7 °F 30.9 °F 34.7 °F 86% 29.67 in 10.0 mi WNW 12.7 mph 27.6 mph N/A   Overcast
12:15 PM 39.2 °F 32.0 °F 35.1 °F 85% 29.68 in 10.0 mi WNW 11.5 mph 21.9 mph N/A   Overcast
12:36 PM 41.2 °F 35.5 °F 35.4 °F 80% 29.68 in 10.0 mi WNW 9.2 mph 21.9 mph N/A   Overcast
12:55 PM 40.3 °F 33.9 °F 34.9 °F 81% 29.69 in 10.0 mi West 10.4 mph 19.6 mph N/A   Overcast
1:15 PM 41.5 °F 35.4 °F 35.1 °F 78% 29.69 in 10.0 mi WNW 10.4 mph 19.6 mph N/A   Overcast
1:36 PM 42.3 °F 36.3 °F 33.6 °F 71% 29.69 in 10.0 mi WNW 10.4 mph 20.7 mph N/A   Overcast
1:55 PM 45.0 °F 38.9 °F 34.2 °F 66% 29.69 in 10.0 mi WNW 12.7 mph 18.4 mph N/A   Overcast
2:15 PM 44.6 °F 38.1 °F 32.7 °F 63% 29.69 in 10.0 mi NW 13.8 mph 26.5 mph N/A   Overcast
2:36 PM 43.3 °F 36.5 °F 29.3 °F 58% 29.70 in 10.0 mi NW 13.8 mph 23.0 mph N/A   Scattered Clouds
2:55 PM 45.0 °F 39.3 °F 30.4 °F 57% 29.70 in 10.0 mi WNW 11.5 mph 20.7 mph N/A   Scattered Clouds
3:16 PM 43.2 °F 36.6 °F 28.9 °F 57% 29.71 in 10.0 mi WNW 12.7 mph 31.1 mph N/A   Scattered Clouds
3:35 PM 44.8 °F 38.7 °F 31.5 °F 60% 29.71 in 10.0 mi WNW 12.7 mph 23.0 mph N/A   Scattered Clouds
3:56 PM 44.8 °F 39.4 °F 33.4 °F 64% 29.73 in 10.0 mi WNW 10.4 mph 19.6 mph N/A   Scattered Clouds
4:15 PM 44.4 °F 38.6 °F 33.4 °F 65% 29.73 in 10.0 mi WNW 11.5 mph 23.0 mph N/A   Scattered Clouds
4:35 PM 43.7 °F 39.1 °F 32.5 °F 65% 29.74 in 10.0 mi WNW 8.1 mph 18.4 mph N/A   Clear
4:56 PM 43.7 °F 37.7 °F 32.2 °F 64% 29.75 in 10.0 mi WNW 11.5 mph 17.3 mph N/A   Clear
5:15 PM 43.2 °F 38.4 °F 32.2 °F 65% 29.75 in 10.0 mi WNW 8.1 mph - N/A   Scattered Clouds
5:36 PM 42.1 °F 35.7 °F 32.5 °F 69% 29.76 in 10.0 mi WNW 11.5 mph 16.1 mph N/A   Clear
5:56 PM 41.0 °F 33.9 °F 32.5 °F 72% 29.77 in 10.0 mi WNW 12.7 mph 18.4 mph N/A   Scattered Clouds
6:15 PM 40.3 °F 34.9 °F 32.2 °F 73% 29.78 in 10.0 mi WNW 8.1 mph - N/A   Scattered Clouds
6:36 PM 39.9 °F 34.5 °F 32.4 °F 74% 29.78 in 10.0 mi NW 8.1 mph 19.6 mph N/A   Mostly Cloudy
6:56 PM 39.2 °F 33.6 °F 32.0 °F 75% 29.79 in 10.0 mi NW 8.1 mph - N/A   Scattered Clouds
7:15 PM 39.2 °F 35.0 °F 32.0 °F 75% 29.79 in 10.0 mi NW 5.8 mph - N/A   Clear
7:36 PM 39.2 °F 33.6 °F 32.0 °F 75% 29.79 in 10.0 mi NW 8.1 mph - N/A   Clear
7:56 PM 39.6 °F 34.7 °F 31.8 °F 74% 29.80 in 10.0 mi NW 6.9 mph - N/A   Mostly Cloudy
8:15 PM 38.7 °F 35.2 °F 32.2 °F 78% 29.80 in 10.0 mi NW 4.6 mph - N/A   Mostly Cloudy
8:36 PM 37.9 °F 34.4 °F 32.0 °F 79% 29.80 in 10.0 mi NNW 4.6 mph - N/A   Scattered Clouds
8:55 PM 38.3 °F 34.8 °F 32.0 °F 78% 29.80 in 10.0 mi NW 4.6 mph - N/A   Scattered Clouds
9:15 PM 38.5 °F 33.4 °F 32.4 °F 79% 29.81 in 10.0 mi NW 6.9 mph - N/A   Mostly Cloudy
9:36 PM 37.4 °F 32.8 °F 32.4 °F 82% 29.81 in 10.0 mi NW 5.8 mph - N/A   Mostly Cloudy
9:55 PM 36.9 °F 30.7 °F 32.5 °F 84% 29.81 in 10.0 mi WNW 8.1 mph - N/A   Scattered Clouds
10:16 PM 37.0 °F 31.0 °F 32.0 °F 82% 29.81 in 10.0 mi NW 8.1 mph - N/A   Mostly Cloudy
10:35 PM 37.6 °F 35.1 °F 32.2 °F 81% 29.81 in 10.0 mi NW 3.5 mph - N/A   Mostly Cloudy
10:55 PM 37.4 °F 32.1 °F 32.4 °F 82% 29.81 in 10.0 mi NW 6.9 mph - N/A   Overcast
11:16 PM 37.6 °F 35.1 °F 32.5 °F 82% 29.81 in 10.0 mi NW 3.5 mph - N/A   Overcast
11:35 PM 37.4 °F 32.1 °F 33.3 °F 85% 29.81 in 10.0 mi NW 6.9 mph - N/A   Light Drizzle
11:56 PM 37.0 °F 31.6 °F 32.2 °F 83% 29.81 in 10.0 mi NW 6.9 mph - N/A   Overcast